Stuart, FL

10:13 AM EDT on April 29, 2017 (GMT -0400)
Witham

Weather History for KSUA - November, 2012

Change the Weather History Date:

Monday, November 5, 2012

  Actual Average Record
Temperature  
Mean Temperature 70 °F -  
Max Temperature 77 °F 80 °F 89 °F (1948)
Min Temperature 64 °F 63 °F 42 °F (2007)
Cooling Degree Days 6    
Growing Degree Days 20 (Base 50)    
Moisture  
Dew Point 63 °F    
Average Humidity 77    
Maximum Humidity 94    
Minimum Humidity 54    
Precipitation  
Precipitation 0.00 in - - ()
Sea Level Pressure  
Sea Level Pressure 29.99 in    
Wind  
Wind Speed 4 mph (WSW)    
Max Wind Speed 8 mph    
Max Gust Speed -    
Visibility 9 miles    
Events      
Averages and records for this station are not official NWS values.
T = Trace of Precipitation, MM = Missing Value Source: NWS Daily Summary

Daily Weather History Graph

Daily Weather History Graph

Search for Another Location

Airport or City:

Trip Planner

Search our weather history database for the weather conditions in past years. The results will help you decide how hot, cold, wet, or windy it might be!

Date:

Astronomy

Nov. 05, 2012 Rise Set
Actual Time 6:34 AM EST 5:34 PM EST
Civil Twilight 6:09 AM EST 5:58 PM EST
Nautical Twilight 5:42 AM EST 6:26 PM EST
Astronomical Twilight 5:14 AM EST 6:53 PM EST
Moon 11:09 PM EST (11/5) 11:51 AM EST (11/5)
Length of Visible Light 11h 48m
Length of Day
11h 00m
Waning Gibbous, 63% of the Moon is Illuminated
Nov 5
Waning Gibbous
Nov 6
Last Quarter
Nov 13
New
Nov 20
First Quarter
Nov 28
Full

Hourly Weather History & Observations

Time (EST) Temp. Dew Point Humidity Pressure Visibility Wind Dir Wind Speed Gust Speed Precip Events Conditions
12:15 AM 69.8 °F 62.6 °F 78% 30.03 in 10.0 mi SW 4.6 mph - N/A   Clear
12:35 AM 69.8 °F 62.6 °F 78% 30.02 in 10.0 mi SW 4.6 mph - N/A   Scattered Clouds
12:55 AM 69.8 °F 62.6 °F 78% 30.02 in 10.0 mi WSW 3.5 mph - N/A   Clear
1:15 AM 68.0 °F 62.6 °F 83% 30.02 in 10.0 mi WSW 4.6 mph - N/A   Clear
1:35 AM 68.0 °F 62.6 °F 83% 30.02 in 10.0 mi WSW 3.5 mph - N/A   Clear
1:55 AM 68.0 °F 62.6 °F 83% 30.02 in 10.0 mi West 4.6 mph - N/A   Clear
2:15 AM 68.0 °F 62.6 °F 83% 30.01 in 10.0 mi WSW 3.5 mph - N/A   Clear
2:35 AM 68.0 °F 62.6 °F 83% 30.01 in 10.0 mi WSW 4.6 mph - N/A   Clear
2:55 AM 68.0 °F 62.6 °F 83% 30.01 in 10.0 mi WSW 4.6 mph - N/A   Clear
3:15 AM 68.0 °F 62.6 °F 83% 30.00 in 10.0 mi SW 3.5 mph - N/A   Clear
3:35 AM 68.0 °F 62.6 °F 83% 29.99 in 10.0 mi WSW 3.5 mph - N/A   Clear
3:55 AM 68.0 °F 62.6 °F 83% 29.99 in 10.0 mi WSW 5.8 mph - N/A   Clear
4:15 AM 68.0 °F 62.6 °F 83% 30.00 in 10.0 mi WSW 5.8 mph - N/A   Clear
4:35 AM 68.0 °F 62.6 °F 83% 29.99 in 10.0 mi WSW 5.8 mph - N/A   Clear
4:55 AM 66.2 °F 62.6 °F 88% 29.99 in 10.0 mi West 4.6 mph - N/A   Clear
5:15 AM 66.2 °F 62.6 °F 88% 30.00 in 10.0 mi West 4.6 mph - N/A   Clear
6:47 AM 64.4 °F 62.6 °F 94% 30.01 in 5.0 mi WNW 5.8 mph - N/A   Mostly Cloudy
8:47 AM 68.0 °F 62.6 °F 83% 30.04 in 6.0 mi WNW 4.6 mph - N/A   Mostly Cloudy
9:47 AM 71.6 °F 64.4 °F 78% 30.03 in 6.0 mi WNW 6.9 mph - N/A   Mostly Cloudy
10:47 AM 73.4 °F 64.4 °F 73% 30.02 in 7.0 mi NW 8.1 mph - N/A   Mostly Cloudy
11:47 AM 75.2 °F 62.6 °F 65% 30.00 in 6.0 mi NW 4.6 mph - N/A   Mostly Cloudy
12:47 PM 77.0 °F 62.6 °F 61% 29.98 in 7.0 mi NW 4.6 mph - N/A   Mostly Cloudy
1:47 PM 77.0 °F 60.8 °F 57% 29.95 in 7.0 mi NNW 4.6 mph - N/A   Mostly Cloudy
2:55 PM 77.0 °F 59.0 °F 54% 29.95 in 7.0 mi West 6.9 mph - N/A   Mostly Cloudy
3:55 PM 77.0 °F 59.0 °F 54% 29.95 in 7.0 mi WSW 4.6 mph - N/A   Mostly Cloudy
4:47 PM 77.0 °F 62.6 °F 61% 29.95 in 7.0 mi SW 4.6 mph - N/A   Mostly Cloudy
5:47 PM 75.2 °F 64.4 °F 69% 29.95 in 7.0 mi Calm Calm - N/A   Mostly Cloudy
6:47 PM 73.4 °F 64.4 °F 73% 29.95 in 7.0 mi Calm Calm - N/A   Mostly Cloudy
7:15 PM 71.6 °F 62.6 °F 73% 29.97 in 10.0 mi WSW 4.6 mph - N/A   Clear
7:35 PM 71.6 °F 62.6 °F 73% 29.97 in 10.0 mi WSW 4.6 mph - N/A   Clear
7:55 PM 71.6 °F 64.4 °F 78% 29.97 in 10.0 mi SW 3.5 mph - N/A   Clear
8:15 PM 71.6 °F 62.6 °F 73% 29.98 in 10.0 mi Calm Calm - N/A   Clear
8:35 PM 71.6 °F 62.6 °F 73% 29.98 in 10.0 mi SW 3.5 mph - N/A   Clear
8:55 PM 71.6 °F 62.6 °F 73% 29.98 in 10.0 mi WSW 3.5 mph - N/A   Clear
9:15 PM 71.6 °F 62.6 °F 73% 29.98 in 10.0 mi WSW 3.5 mph - N/A   Clear
9:35 PM 69.8 °F 62.6 °F 78% 29.97 in 10.0 mi SW 3.5 mph - N/A   Clear
9:55 PM 69.8 °F 62.6 °F 78% 29.99 in 10.0 mi Calm Calm - N/A   Clear
10:15 PM 69.8 °F 62.6 °F 78% 29.98 in 10.0 mi West 3.5 mph - N/A   Clear
10:35 PM 69.8 °F 62.6 °F 78% 29.97 in 10.0 mi Calm Calm - N/A   Clear
10:55 PM 69.8 °F 62.6 °F 78% 29.97 in 10.0 mi Calm Calm - N/A   Clear
11:15 PM 69.8 °F 62.6 °F 78% 29.97 in 10.0 mi Calm Calm - N/A   Clear
11:35 PM 69.8 °F 62.6 °F 78% 29.96 in 10.0 mi Calm Calm - N/A   Clear
11:55 PM 69.8 °F 64.4 °F 83% 29.96 in 10.0 mi WSW 4.6 mph - N/A   Clear